NOAA 16 DEB, 41064

Orbit data source: Space-Track

NOAA 16 DEB, 41064 is space debris in SSO originally from a launch on Thu, 21 Sep 2000 UTC launched from the Air Force Western Test Range (AFWTR). Debris objects in space refer to the collection of defunct objects orbiting the Earth. Examples of debris include non-operational satellites, rocket bodies, and fragments generated from explosions, collisions, or faulty payload assembly.

Loading next visibility...
Identifier
41064, 2000-055X
Orbit
SSO
Country
Flag of USUS
Related business
Manufacturer
Unknown
Mission
Spacecraft
Bus & Motor
Unknown
Mass
Unknown
Launch date (UTC)
2000-09-21 (25 years ago)
Launch vehicle
Unknown
Launch site
Air Force Western Test Range (AFWTR)
Object type
Payload
Rocket body
Debris
Shape & HBR
Unknown shape, 0.1 m
Radar Cross Section
Small (<0.1 m²)

Expand to show TLE details & history
Last TLE update: 20 hours ago

TLE from 20 hours ago
0 NOAA 16 DEB
1 41064U 00055X   25346.87951653  .00012799  00000-0  38323-2 0  9998
2 41064  98.8454 111.9331 0011571  66.7729 293.4677 14.42927090521099
Epoch: 2025-12-12T21:06Z
TLE epoch observation values (Epoch: 2025-12-12T21:06:30.228Z)
Latitude
-0°
Longitude
73.49235°
Altitude
748.508 km
Speed
7.482 km/s
True Right ascension
07h 27m 43s
True Declination
0° 00' 00"
Sunlit
Object was in full shadow at epoch
Visualization orbit readout
Latitude
Unknown
Longitude
Unknown
Altitude
Unknown
Speed
Unknown
Apparent Right ascension
Unknown
Apparent Declination
Unknown
Sunlit
N/A
Visualization observer readout
Local Sidereal Time
15:10:47
Azimuth
Unknown
Elevation
Unknown
Doppler factor
Unknown
Orbital elements
Apogee altitude
754.222 km
Perigee altitude
737.735 km
Semi-major axis
7,124.115 km
Eccentricity
0.00116
Inclination
98.8454°
RAAN
111.9331°
Arg. of periapsis
66.7729°
True anomaly
293.346°
Mean anomaly
293.4677°
Eccentric anomaly
293.40686°
Mean motion
3.6095 °/min
Orbital period
99.74 mins
BSTAR
0.0038323
Loading maneuver chart data...
Computing Atmospheric mass density...
Loading historical data...
Loading historical data...
Loading historical data...
Loading historical data...
Loading historical data...
Loading historical data...
Loading historical data...

Documentation

Showing up to 5 results
|